Regional Weather Roundup
Issued by NWS

Home | Current Version | Previous Version | Text Only | Print | Product List | Glossary Off
Versions: 1 2 3 4 5 6 7 8 9 10 11 12 13 14 15 16 17 18 19 20 21 22 23 24 25 26 27 28 29 30 31 32 33 34 35 36 37 38 39 40 41 42 43 44 45 46

000
ASUS45 KSLC 292110
RWRUT

UTAH REGIONAL WEATHER ROUNDUP
NATIONAL WEATHER SERVICE SALT LAKE CITY UT
300 PM MDT SAT AUG 29 2015

UTZ001>011-023>025-292200-

NORTHERN UTAH

CITY           SKY/WX    TMP DP  RH WIND       PRES   REMARKS
BRIGHAM CITY     N/A     94  32  11 S13G20    30.00F
HILL AFB         N/A     92  44  19 S17       30.05F
LOGAN            N/A     91  42  18 SW14G21   30.02F
OGDEN            N/A     95  41  15 SE17      30.01F HX  91
PROVO AIRPORT  PTSUNNY   91  45  19 VRB6      30.05F
SALT LAKE CITY PTSUNNY   95  40  14 SE18G26   29.99F HX  91
VERNAL           N/A     88  33  14 S8        30.16F
WENDOVER       PTSUNNY   93  43  17 SE12      29.94F
HEBER CITY       N/A     90  36  14 SW15G22   30.13F
WEST JORDAN    SUNNY     93  45  18 SE16G25   30.04F

$$

UTZ012>022-026-027-292200-

SOUTHERN/CENTRAL UTAH

CITY           SKY/WX    TMP DP  RH WIND       PRES   REMARKS
BLANDING         N/A     87  36  16 CALM      30.31F
BRYCE CANYON   PTSUNNY   78  41  26 S12       30.36F
CEDAR CITY       N/A     91  38  15 SW15G25   30.15F
DELTA            N/A     95  33  11 SW20G28   30.06F HX  90
HANKSVILLE       N/A     93  34  12 CALM      30.12F
MILFORD          N/A     95  44  17 S23G31    30.08F HX  91
MOAB/CYNLANDS    N/A     93  39  15 NE5       30.10F
PRICE            N/A     86  34  15 SE10G18   30.22F
ST GEORGE        N/A    102  52  18 SE13      29.95F HX 100
KANAB            N/A     91  45  19 S10       30.18F

$$

REGIONAL REPORTS     COLORADO/ARIZONA

CITY           SKY/WX    TMP DP  RH WIND       PRES   REMARKS
CRAIG, CO        N/A     87  31  13 SE6       30.23F
GRAND JUNCTION   N/A     89  43  20 W7        30.14F
RIFLE            N/A     88  41  19 NW7       30.19F
MONTROSE         N/A     88  40  18 N8        30.22F
CORTEZ           N/A     89  40  17 SW10G18   30.24F
PAGE, AZ         N/A     97  38  13 NE7       30.08F HX  92
GRAND CANYON   CLOUDY    84  41  21 VRB3      30.29F
KINGMAN        PTSUNNY   95  52  23 SE18G24   30.01F HX  92
FLAGSTAFF        N/A     81  40  23 W9        30.33F

$$

REGIONAL REPORTS    NEVADA/IDAHO/WYOMING

CITY           SKY/WX    TMP DP  RH WIND       PRES   REMARKS
LAS VEGAS, NV    N/A    105  44  12 SW13G24   29.82F HX 100
ELY            PTSUNNY   86  39  19 S22G33    30.14F
ELKO             N/A     92  38  15 SW16G26   29.97F
POCATELLO, ID    N/A     95  39  14 S23G39    29.96F HX  91
EVANSTON, WY     N/A     84  35  17 SW17G29   30.25F
ROCK SPRINGS     N/A     86  29  12 NW7       30.22F
KEMMERER       PTSUNNY   82  30  15 SW13G22   30.26S

$$



USA.gov is the U.S. government's official web portal to all federal, state and local government web resources and services.